Time,TemperatureF,DewpointF,PressureIn,WindDirection,WindDirectionDegrees,WindSpeedMPH,WindSpeedGustMPH,Humidity,HourlyPrecipIn,Conditions,Clouds,dailyrainin,SoftwareType,DateUTC
2013-04-18 00:00:00,45.5,44.7,29.90,NNW,344,3.0,3.0,97,0.15,,,0.01,Wunderground v.1.15,2013-04-18 05:00:00,
2013-04-18 00:05:00,45.4,44.6,29.89,NNW,341,3.0,3.0,97,0.20,,,0.03,Wunderground v.1.15,2013-04-18 05:05:00,
2013-04-18 00:15:00,45.3,44.5,29.92,WNW,286,4.0,6.0,97,0.14,,,0.05,Wunderground v.1.15,2013-04-18 05:15:00,
2013-04-18 00:20:00,45.1,44.3,29.92,North,355,6.0,6.0,97,0.58,,,0.08,Wunderground v.1.15,2013-04-18 05:20:00,
2013-04-18 00:25:00,45.0,44.2,29.91,NW,310,8.0,8.0,97,0.38,,,0.13,Wunderground v.1.15,2013-04-18 05:25:00,
2013-04-18 00:35:00,44.6,43.8,29.90,NW,307,7.0,13.0,97,0.43,,,0.21,Wunderground v.1.15,2013-04-18 05:35:00,
2013-04-18 00:40:00,44.5,43.7,29.92,North,360,6.0,6.0,97,0.51,,,0.25,Wunderground v.1.15,2013-04-18 05:40:00,
2013-04-18 00:45:00,44.6,43.8,29.90,North,355,3.0,6.0,97,1.32,,,0.34,Wunderground v.1.15,2013-04-18 05:45:00,
2013-04-18 00:50:00,44.9,44.1,29.89,NW,317,2.0,7.0,97,0.39,,,0.40,Wunderground v.1.15,2013-04-18 05:50:00,
2013-04-18 00:55:00,44.9,44.1,29.89,NNE,17,4.0,7.0,97,0.17,,,0.42,Wunderground v.1.15,2013-04-18 05:55:00,
2013-04-18 01:05:00,44.5,43.7,29.88,North,360,4.0,4.0,97,0.09,,,0.43,Wunderground v.1.15,2013-04-18 06:05:00,
2013-04-18 01:15:00,44.3,43.5,29.87,NNW,344,2.0,4.0,97,0.13,,,0.46,Wunderground v.1.15,2013-04-18 06:15:00,
2013-04-18 01:20:00,44.3,43.5,29.86,NNW,336,2.0,2.0,97,0.12,,,0.47,Wunderground v.1.15,2013-04-18 06:20:00,
2013-04-18 01:25:00,44.2,43.4,29.85,NNW,348,2.0,2.0,97,0.14,,,0.48,Wunderground v.1.15,2013-04-18 06:25:00,
2013-04-18 01:35:00,43.9,43.1,29.84,NNE,27,1.0,1.0,97,0.09,,,0.50,Wunderground v.1.15,2013-04-18 06:35:00,
2013-04-18 01:40:00,43.9,43.1,29.84,NNW,338,1.0,2.0,97,0.09,,,0.50,Wunderground v.1.15,2013-04-18 06:40:00,
2013-04-18 01:45:00,43.9,43.1,29.84,NNW,348,2.0,2.0,97,0.07,,,0.51,Wunderground v.1.15,2013-04-18 06:45:00,
2013-04-18 01:50:00,43.9,43.1,29.83,ESE,113,1.0,4.0,97,0.11,,,0.52,Wunderground v.1.15,2013-04-18 06:50:00,
2013-04-18 01:55:00,43.9,43.1,29.82,East,94,1.0,5.0,97,0.13,,,0.53,Wunderground v.1.15,2013-04-18 06:55:00,
2013-04-18 02:00:00,44.0,43.2,29.82,ENE,59,1.0,1.0,97,0.12,,,0.54,Wunderground v.1.15,2013-04-18 07:00:00,
2013-04-18 02:05:00,44.0,43.2,29.81,East,83,1.0,1.0,97,0.11,,,0.55,Wunderground v.1.15,2013-04-18 07:05:00,
2013-04-18 02:15:00,44.0,43.2,29.81,East,83,0.0,0.0,97,0.15,,,0.58,Wunderground v.1.15,2013-04-18 07:15:00,
2013-04-18 02:20:00,44.1,43.3,29.80,ESE,102,0.0,0.0,97,0.22,,,0.59,Wunderground v.1.15,2013-04-18 07:20:00,
2013-04-18 02:30:00,44.2,43.4,29.78,East,99,1.0,1.0,97,0.22,,,0.63,Wunderground v.1.15,2013-04-18 07:30:00,
2013-04-18 02:35:00,44.2,43.4,29.76,ESE,115,1.0,4.0,97,0.23,,,0.65,Wunderground v.1.15,2013-04-18 07:35:00,
2013-04-18 02:40:00,44.2,43.4,29.76,East,79,2.0,3.0,97,0.23,,,0.67,Wunderground v.1.15,2013-04-18 07:40:00,
2013-04-18 02:45:00,44.2,43.4,29.75,ENE,65,2.0,3.0,97,0.18,,,0.68,Wunderground v.1.15,2013-04-18 07:45:00,
2013-04-18 02:55:00,44.5,43.7,29.76,ENE,70,1.0,2.0,97,0.23,,,0.72,Wunderground v.1.15,2013-04-18 07:55:00,
2013-04-18 03:00:00,44.8,44.0,29.77,East,95,1.0,1.0,97,0.20,,,0.74,Wunderground v.1.15,2013-04-18 08:00:00,
2013-04-18 03:05:00,45.1,44.3,29.78,SSE,160,0.0,1.0,97,0.19,,,0.76,Wunderground v.1.15,2013-04-18 08:05:00,
2013-04-18 03:15:00,45.5,44.7,29.78,East,82,0.0,0.0,97,0.48,,,0.81,Wunderground v.1.15,2013-04-18 08:15:00,
2013-04-18 03:20:00,45.9,45.1,29.78,SSE,155,1.0,1.0,97,0.23,,,0.83,Wunderground v.1.15,2013-04-18 08:20:00,
2013-04-18 03:25:00,46.0,45.2,29.77,ESE,119,2.0,2.0,97,0.36,,,0.86,Wunderground v.1.15,2013-04-18 08:25:00,
2013-04-18 03:30:00,46.0,45.2,29.77,SE,145,2.0,2.0,97,0.15,,,0.87,Wunderground v.1.15,2013-04-18 08:30:00,
2013-04-18 03:35:00,45.9,45.1,29.77,SSE,164,1.0,2.0,97,0.22,,,0.89,Wunderground v.1.15,2013-04-18 08:35:00,
2013-04-18 03:40:00,45.8,45.0,29.76,ESE,110,1.0,1.0,97,0.11,,,0.89,Wunderground v.1.15,2013-04-18 08:40:00,
2013-04-18 03:50:00,45.8,45.0,29.75,SE,136,0.0,6.0,97,0.11,,,0.91,Wunderground v.1.15,2013-04-18 08:50:00,
2013-04-18 03:55:00,45.9,45.1,29.74,East,101,3.0,6.0,97,0.09,,,0.92,Wunderground v.1.15,2013-04-18 08:55:00,
2013-04-18 04:05:00,46.1,45.6,29.74,East,98,3.0,5.0,98,0.09,,,0.93,Wunderground v.1.15,2013-04-18 09:05:00,
2013-04-18 04:15:00,46.3,45.8,29.73,SSE,153,3.0,4.0,98,0.06,,,0.94,Wunderground v.1.15,2013-04-18 09:15:00,
2013-04-18 04:25:00,46.7,45.9,29.71,ESE,112,1.0,7.0,97,0.07,,,0.95,Wunderground v.1.15,2013-04-18 09:25:00,
2013-04-18 04:30:00,47.0,46.5,29.70,ESE,115,1.0,6.0,98,0.05,,,0.95,Wunderground v.1.15,2013-04-18 09:30:00,
2013-04-18 04:35:00,47.2,46.4,29.70,ESE,123,2.0,6.0,97,0.05,,,0.96,Wunderground v.1.15,2013-04-18 09:35:00,
2013-04-18 04:40:00,47.4,46.9,29.69,East,90,2.0,4.0,98,0.05,,,0.96,Wunderground v.1.15,2013-04-18 09:40:00,
2013-04-18 04:45:00,47.6,47.1,29.68,ESE,110,2.0,4.0,98,0.04,,,0.96,Wunderground v.1.15,2013-04-18 09:45:00,
2013-04-18 04:50:00,47.8,47.3,29.66,ESE,110,2.0,2.0,98,0.04,,,0.97,Wunderground v.1.15,2013-04-18 09:50:00,
2013-04-18 04:55:00,48.2,47.7,29.66,SSE,151,2.0,5.0,98,0.04,,,0.97,Wunderground v.1.15,2013-04-18 09:55:00,
2013-04-18 05:05:00,48.8,48.3,29.67,SSE,157,2.0,5.0,98,0.04,,,0.98,Wunderground v.1.15,2013-04-18 10:05:00,
2013-04-18 05:15:00,48.6,48.1,29.66,SSE,150,2.0,3.0,98,0.08,,,0.99,Wunderground v.1.15,2013-04-18 10:15:00,
2013-04-18 05:20:00,48.6,48.1,29.64,SE,130,1.0,2.0,98,0.07,,,0.99,Wunderground v.1.15,2013-04-18 10:20:00,
2013-04-18 05:25:00,48.7,48.2,29.64,ESE,122,2.0,2.0,98,0.04,,,0.99,Wunderground v.1.15,2013-04-18 10:25:00,
2013-04-18 05:35:00,48.8,48.3,29.66,SSE,149,1.0,1.0,98,0.00,,,0.99,Wunderground v.1.15,2013-04-18 10:35:00,
2013-04-18 05:40:00,48.8,48.3,29.66,ESE,118,2.0,2.0,98,0.00,,,1.00,Wunderground v.1.15,2013-04-18 10:40:00,
2013-04-18 05:45:00,48.8,48.3,29.65,ESE,115,2.0,2.0,98,0.00,,,1.00,Wunderground v.1.15,2013-04-18 10:45:00,
2013-04-18 05:50:00,49.2,48.7,29.65,SE,137,2.0,2.0,98,0.07,,,1.01,Wunderground v.1.15,2013-04-18 10:50:00,
2013-04-18 05:55:00,49.3,48.8,29.65,SE,138,1.0,2.0,98,0.07,,,1.01,Wunderground v.1.15,2013-04-18 10:55:00,
2013-04-18 06:00:00,49.5,49.0,29.65,ESE,107,1.0,5.0,98,0.05,,,1.02,Wunderground v.1.15,2013-04-18 11:00:00,
2013-04-18 06:05:00,49.8,49.3,29.65,SE,141,2.0,5.0,98,0.05,,,1.02,Wunderground v.1.15,2013-04-18 11:05:00,
2013-04-18 06:15:00,50.1,49.6,29.65,SE,140,1.0,2.0,98,0.10,,,1.04,Wunderground v.1.15,2013-04-18 11:15:00,
2013-04-18 06:20:00,50.1,49.6,29.65,SE,125,1.0,1.0,98,0.10,,,1.05,Wunderground v.1.15,2013-04-18 11:20:00,
2013-04-18 06:25:00,49.9,49.4,29.66,SE,125,0.0,1.0,98,0.10,,,1.06,Wunderground v.1.15,2013-04-18 11:25:00,
2013-04-18 06:30:00,49.9,49.4,29.64,ESE,114,0.0,1.0,98,0.18,,,1.07,Wunderground v.1.15,2013-04-18 11:30:00,
2013-04-18 06:35:00,49.8,49.3,29.64,SSE,160,1.0,5.0,98,0.21,,,1.09,Wunderground v.1.15,2013-04-18 11:35:00,
2013-04-18 06:45:00,50.3,49.8,29.65,ESE,110,1.0,2.0,98,0.10,,,1.11,Wunderground v.1.15,2013-04-18 11:45:00,
2013-04-18 06:50:00,50.5,50.0,29.65,ESE,111,0.0,0.0,98,0.05,,,1.11,Wunderground v.1.15,2013-04-18 11:50:00,
2013-04-18 07:00:00,50.5,50.0,29.67,SSE,159,0.0,0.0,98,0.00,,,1.12,Wunderground v.1.15,2013-04-18 12:00:00,
2013-04-18 07:05:00,50.3,49.8,29.66,SSE,159,0.0,0.0,98,0.00,,,1.12,Wunderground v.1.15,2013-04-18 12:05:00,
2013-04-18 07:15:00,50.5,50.0,29.67,SSE,156,3.0,6.0,98,0.06,,,1.13,Wunderground v.1.15,2013-04-18 12:15:00,
2013-04-18 07:20:00,50.6,50.1,29.67,SSE,156,2.0,2.0,98,0.04,,,1.13,Wunderground v.1.15,2013-04-18 12:20:00,
2013-04-18 07:25:00,50.7,50.2,29.67,SSE,156,0.0,2.0,98,0.00,,,1.13,Wunderground v.1.15,2013-04-18 12:25:00,
2013-04-18 07:30:00,50.8,50.3,29.67,SSE,156,0.0,0.0,98,0.00,,,1.14,Wunderground v.1.15,2013-04-18 12:30:00,
2013-04-18 07:35:00,50.8,50.3,29.67,SSE,156,0.0,4.0,98,0.00,,,1.14,Wunderground v.1.15,2013-04-18 12:35:00,
2013-04-18 07:40:00,50.9,50.4,29.66,SSE,156,1.0,1.0,98,0.05,,,1.14,Wunderground v.1.15,2013-04-18 12:40:00,
2013-04-18 07:45:00,50.9,50.4,29.66,SSE,156,1.0,1.0,98,0.05,,,1.15,Wunderground v.1.15,2013-04-18 12:45:00,
2013-04-18 07:55:00,50.9,50.4,29.66,SSE,156,0.0,0.0,98,0.11,,,1.17,Wunderground v.1.15,2013-04-18 12:55:00,
2013-04-18 08:00:00,50.9,50.4,29.65,SSE,156,0.0,0.0,98,0.08,,,1.17,Wunderground v.1.15,2013-04-18 13:00:00,
2013-04-18 08:05:00,50.9,50.4,29.65,SSE,156,0.0,0.0,98,0.08,,,1.18,Wunderground v.1.15,2013-04-18 13:05:00,
2013-04-18 08:15:00,50.8,50.3,29.63,SSE,156,0.0,0.0,98,0.08,,,1.19,Wunderground v.1.15,2013-04-18 13:15:00,
2013-04-18 08:20:00,50.8,50.3,29.63,SSE,156,0.0,0.0,98,0.05,,,1.20,Wunderground v.1.15,2013-04-18 13:20:00,
2013-04-18 08:25:00,51.0,50.5,29.61,SSE,156,0.0,0.0,98,0.05,,,1.20,Wunderground v.1.15,2013-04-18 13:25:00,
2013-04-18 08:30:00,51.2,50.7,29.60,ESE,107,0.0,0.0,98,0.05,,,1.20,Wunderground v.1.15,2013-04-18 13:30:00,
2013-04-18 08:35:00,51.4,50.9,29.59,ESE,102,0.0,0.0,98,0.04,,,1.20,Wunderground v.1.15,2013-04-18 13:35:00,
2013-04-18 08:40:00,51.6,51.1,29.60,ESE,103,0.0,0.0,98,0.00,,,1.20,Wunderground v.1.15,2013-04-18 13:40:00,
2013-04-18 08:45:00,51.8,51.3,29.61,ESE,102,0.0,0.0,98,0.00,,,1.20,Wunderground v.1.15,2013-04-18 13:45:00,
2013-04-18 08:55:00,52.1,51.6,29.63,East,92,0.0,0.0,98,0.00,,,1.20,Wunderground v.1.15,2013-04-18 13:55:00,
2013-04-18 09:00:00,52.1,51.6,29.63,East,92,0.0,0.0,98,0.00,,,1.20,Wunderground v.1.15,2013-04-18 14:00:00,
2013-04-18 09:05:00,52.2,51.7,29.64,East,92,0.0,0.0,98,0.00,,,1.20,Wunderground v.1.15,2013-04-18 14:05:00,
2013-04-18 09:15:00,52.5,52.0,29.65,East,92,0.0,0.0,98,0.00,,,1.20,Wunderground v.1.15,2013-04-18 14:15:00,
2013-04-18 09:20:00,52.7,52.2,29.65,East,92,0.0,0.0,98,0.00,,,1.20,Wunderground v.1.15,2013-04-18 14:20:00,
2013-04-18 09:25:00,53.1,52.6,29.66,East,92,0.0,1.0,98,0.00,,,1.20,Wunderground v.1.15,2013-04-18 14:25:00,
2013-04-18 09:30:00,53.3,52.8,29.66,East,92,0.0,0.0,98,0.00,,,1.20,Wunderground v.1.15,2013-04-18 14:30:00,
2013-04-18 09:35:00,53.6,53.0,29.67,NNW,336,1.0,1.0,98,0.00,,,1.20,Wunderground v.1.15,2013-04-18 14:35:00,
2013-04-18 09:40:00,53.8,53.2,29.67,NNW,332,2.0,5.0,98,0.00,,,1.20,Wunderground v.1.15,2013-04-18 14:40:00,
2013-04-18 09:50:00,53.9,53.3,29.64,NNW,330,3.0,3.0,98,0.00,,,1.20,Wunderground v.1.15,2013-04-18 14:50:00,
2013-04-18 09:55:00,53.9,53.3,29.62,NNW,330,1.0,3.0,98,0.00,,,1.20,Wunderground v.1.15,2013-04-18 14:55:00,
2013-04-18 10:00:00,54.3,53.7,29.64,NW,325,1.0,1.0,98,0.00,,,1.20,Wunderground v.1.15,2013-04-18 15:00:00,
2013-04-18 10:05:00,54.6,54.0,29.64,NW,325,1.0,1.0,98,0.00,,,1.20,Wunderground v.1.15,2013-04-18 15:05:00,
2013-04-18 10:15:00,55.1,54.5,29.62,NW,325,0.0,0.0,98,0.00,,,1.20,Wunderground v.1.15,2013-04-18 15:15:00,
2013-04-18 10:20:00,55.3,54.7,29.61,NW,325,0.0,0.0,98,0.00,,,1.20,Wunderground v.1.15,2013-04-18 15:20:00,
2013-04-18 10:25:00,55.9,55.3,29.61,NW,325,0.0,0.0,98,0.00,,,1.20,Wunderground v.1.15,2013-04-18 15:25:00,
2013-04-18 10:35:00,56.4,55.8,29.63,NW,325,0.0,0.0,98,0.00,,,1.20,Wunderground v.1.15,2013-04-18 15:35:00,
2013-04-18 10:40:00,56.6,56.0,29.63,NW,325,0.0,0.0,98,0.00,,,1.20,Wunderground v.1.15,2013-04-18 15:40:00,
2013-04-18 10:45:00,56.4,55.8,29.63,NW,325,0.0,0.0,98,0.00,,,1.20,Wunderground v.1.15,2013-04-18 15:45:00,
2013-04-18 10:50:00,56.2,55.6,29.63,NW,325,0.0,0.0,98,0.00,,,1.20,Wunderground v.1.15,2013-04-18 15:50:00,
2013-04-18 10:55:00,55.9,55.3,29.63,SE,132,1.0,1.0,98,0.00,,,1.20,Wunderground v.1.15,2013-04-18 15:55:00,
2013-04-18 11:00:00,55.7,55.1,29.65,SE,132,1.0,1.0,98,0.00,,,1.20,Wunderground v.1.15,2013-04-18 16:00:00,
2013-04-18 11:05:00,55.9,55.3,29.64,SE,139,1.0,4.0,98,0.00,,,1.20,Wunderground v.1.15,2013-04-18 16:05:00,
2013-04-18 11:15:00,56.1,55.5,29.64,SE,146,1.0,2.0,98,0.00,,,1.20,Wunderground v.1.15,2013-04-18 16:15:00,
2013-04-18 11:20:00,56.2,55.6,29.62,SE,145,0.0,0.0,98,0.00,,,1.20,Wunderground v.1.15,2013-04-18 16:20:00,
2013-04-18 11:25:00,56.4,55.8,29.62,SSE,153,1.0,6.0,98,0.00,,,1.20,Wunderground v.1.15,2013-04-18 16:25:00,
2013-04-18 11:35:00,56.7,56.4,29.64,SE,144,3.0,4.0,99,0.00,,,1.20,Wunderground v.1.15,2013-04-18 16:35:00,
2013-04-18 11:40:00,56.6,56.3,29.64,SSE,150,3.0,4.0,99,0.00,,,1.20,Wunderground v.1.15,2013-04-18 16:40:00,
2013-04-18 11:45:00,56.5,55.9,29.64,SSE,157,4.0,5.0,98,0.00,,,1.20,Wunderground v.1.15,2013-04-18 16:45:00,
2013-04-18 11:50:00,56.4,55.8,29.62,SE,129,5.0,5.0,98,0.00,,,1.20,Wunderground v.1.15,2013-04-18 16:50:00,
2013-04-18 11:55:00,56.4,55.8,29.60,SSE,154,4.0,5.0,98,0.00,,,1.20,Wunderground v.1.15,2013-04-18 16:55:00,
2013-04-18 12:00:00,56.3,55.7,29.59,SSE,153,3.0,3.0,98,0.00,,,1.20,Wunderground v.1.15,2013-04-18 17:00:00,
2013-04-18 12:05:00,56.5,55.9,29.53,SE,134,3.0,5.0,98,0.00,,,1.20,Wunderground v.1.15,2013-04-18 17:05:00,
2013-04-18 12:15:00,56.6,56.0,29.54,SSE,153,5.0,9.0,98,0.00,,,1.20,Wunderground v.1.15,2013-04-18 17:15:00,
2013-04-18 12:20:00,56.7,56.4,29.57,SSE,164,7.0,7.0,99,0.00,,,1.20,Wunderground v.1.15,2013-04-18 17:20:00,
2013-04-18 12:30:00,56.5,55.9,29.58,SE,146,10.0,11.0,98,0.00,,,1.20,Wunderground v.1.15,2013-04-18 17:30:00,
2013-04-18 12:35:00,56.6,56.0,29.56,SSE,148,10.0,11.0,98,0.00,,,1.20,Wunderground v.1.15,2013-04-18 17:35:00,
2013-04-18 12:40:00,56.7,56.4,29.56,SSE,164,11.0,11.0,99,0.00,,,1.20,Wunderground v.1.15,2013-04-18 17:40:00,
2013-04-18 12:45:00,56.8,56.2,29.58,South,179,8.0,11.0,98,0.00,,,1.20,Wunderground v.1.15,2013-04-18 17:45:00,
2013-04-18 12:50:00,56.8,56.2,29.55,SSE,150,8.0,8.0,98,0.00,,,1.20,Wunderground v.1.15,2013-04-18 17:50:00,
2013-04-18 13:00:00,56.9,56.3,29.58,SE,142,7.0,7.0,98,0.00,,,1.20,Wunderground v.1.15,2013-04-18 18:00:00,
2013-04-18 13:05:00,57.0,56.4,29.57,SSE,149,8.0,8.0,98,0.00,,,1.20,Wunderground v.1.15,2013-04-18 18:05:00,
2013-04-18 13:15:00,57.2,56.6,29.55,SSE,152,9.0,9.0,98,0.00,,,1.20,Wunderground v.1.15,2013-04-18 18:15:00,
2013-04-18 13:20:00,57.4,56.8,29.55,SSE,153,10.0,10.0,98,0.00,,,1.20,Wunderground v.1.15,2013-04-18 18:20:00,
2013-04-18 13:25:00,57.7,57.1,29.53,SSE,152,9.0,10.0,98,0.00,,,1.20,Wunderground v.1.15,2013-04-18 18:25:00,
2013-04-18 13:30:00,57.8,57.2,29.53,SSE,150,8.0,12.0,98,0.00,,,1.20,Wunderground v.1.15,2013-04-18 18:30:00,
2013-04-18 13:35:00,57.9,57.3,29.54,SE,141,8.0,12.0,98,0.00,,,1.20,Wunderground v.1.15,2013-04-18 18:35:00,
2013-04-18 13:45:00,58.1,57.5,29.53,SE,142,7.0,9.0,98,0.00,,,1.20,Wunderground v.1.15,2013-04-18 18:45:00,
2013-04-18 13:50:00,58.3,57.7,29.53,South,186,7.0,7.0,98,0.00,,,1.20,Wunderground v.1.15,2013-04-18 18:50:00,
2013-04-18 13:55:00,58.4,57.8,29.52,SE,134,6.0,7.0,98,0.00,,,1.20,Wunderground v.1.15,2013-04-18 18:55:00,
2013-04-18 14:00:00,58.5,57.9,29.52,SE,135,7.0,7.0,98,0.00,,,1.20,Wunderground v.1.15,2013-04-18 19:00:00,
2013-04-18 14:05:00,58.6,58.0,29.52,South,190,7.0,7.0,98,0.00,,,1.20,Wunderground v.1.15,2013-04-18 19:05:00,
2013-04-18 14:15:00,59.0,58.4,29.53,SSE,148,7.0,10.0,98,0.00,,,1.20,Wunderground v.1.15,2013-04-18 19:15:00,
2013-04-18 14:20:00,59.0,58.4,29.52,SSE,161,7.0,7.0,98,0.00,,,1.20,Wunderground v.1.15,2013-04-18 19:20:00,
2013-04-18 14:25:00,59.3,58.7,29.53,SSE,161,7.0,7.0,98,0.00,,,1.20,Wunderground v.1.15,2013-04-18 19:25:00,
2013-04-18 14:35:00,59.7,59.1,29.52,SE,142,7.0,7.0,98,0.00,,,1.20,Wunderground v.1.15,2013-04-18 19:35:00,
2013-04-18 14:40:00,59.8,58.9,29.52,South,184,7.0,7.0,97,0.00,,,1.20,Wunderground v.1.15,2013-04-18 19:40:00,
2013-04-18 14:45:00,59.9,59.0,29.51,SE,132,8.0,12.0,97,0.00,,,1.20,Wunderground v.1.15,2013-04-18 19:45:00,
2013-04-18 14:50:00,60.0,59.1,29.52,SSE,165,9.0,11.0,97,0.00,,,1.20,Wunderground v.1.15,2013-04-18 19:50:00,
2013-04-18 14:55:00,60.1,59.2,29.51,SE,144,9.0,11.0,97,0.94,,,1.22,Wunderground v.1.15,2013-04-18 19:55:00,
2013-04-18 15:05:00,59.8,58.7,29.49,SSE,153,10.0,12.0,96,0.06,,,1.24,Wunderground v.1.15,2013-04-18 20:05:00,
2013-04-18 15:15:00,59.8,58.7,29.48,SE,140,11.0,12.0,96,0.05,,,1.25,Wunderground v.1.15,2013-04-18 20:15:00,
2013-04-18 15:20:00,59.9,58.8,29.47,SSE,152,11.0,12.0,96,0.05,,,1.25,Wunderground v.1.15,2013-04-18 20:20:00,
2013-04-18 15:25:00,60.2,59.1,29.49,South,180,12.0,12.0,96,0.00,,,1.25,Wunderground v.1.15,2013-04-18 20:25:00,
2013-04-18 15:30:00,60.3,59.2,29.48,SE,142,12.0,12.0,96,0.00,,,1.25,Wunderground v.1.15,2013-04-18 20:30:00,
2013-04-18 15:35:00,60.4,59.3,29.47,SE,135,12.0,12.0,96,0.00,,,1.25,Wunderground v.1.15,2013-04-18 20:35:00,
2013-04-18 15:45:00,60.7,59.6,29.47,SE,142,12.0,13.0,96,0.00,,,1.25,Wunderground v.1.15,2013-04-18 20:45:00,
2013-04-18 15:50:00,60.9,59.5,29.46,SSE,154,14.0,14.0,95,0.00,,,1.25,Wunderground v.1.15,2013-04-18 20:50:00,
2013-04-18 15:55:00,61.0,59.6,29.46,SE,145,15.0,15.0,95,0.00,,,1.25,Wunderground v.1.15,2013-04-18 20:55:00,
2013-04-18 16:00:00,61.0,59.3,29.46,SSE,149,14.0,17.0,94,0.00,,,1.25,Wunderground v.1.15,2013-04-18 21:00:00,
2013-04-18 16:05:00,60.8,59.1,29.45,South,172,14.0,17.0,94,0.00,,,1.25,Wunderground v.1.15,2013-04-18 21:05:00,
2013-04-18 16:15:00,60.5,59.1,29.44,SSE,159,13.0,21.0,95,0.00,,,1.25,Wunderground v.1.15,2013-04-18 21:15:00,
2013-04-18 16:20:00,60.4,59.0,29.44,SSE,161,14.0,15.0,95,0.00,,,1.25,Wunderground v.1.15,2013-04-18 21:20:00,
2013-04-18 16:25:00,60.4,59.0,29.44,SE,134,14.0,15.0,95,0.00,,,1.25,Wunderground v.1.15,2013-04-18 21:25:00,
2013-04-18 16:30:00,60.4,59.0,29.45,SE,144,13.0,13.0,95,0.00,,,1.25,Wunderground v.1.15,2013-04-18 21:30:00,
2013-04-18 16:40:00,57.0,55.0,29.49,SSW,195,8.0,8.0,93,0.12,,,1.27,Wunderground v.1.15,2013-04-18 21:40:00,
2013-04-18 16:45:00,54.8,52.8,29.50,WSW,242,7.0,9.0,93,0.06,,,1.27,Wunderground v.1.15,2013-04-18 21:45:00,
2013-04-18 16:50:00,53.2,51.2,29.51,NNW,338,7.0,7.0,93,0.04,,,1.27,Wunderground v.1.15,2013-04-18 21:50:00,
2013-04-18 16:55:00,52.3,50.3,29.50,South,191,7.0,7.0,93,0.00,,,1.27,Wunderground v.1.15,2013-04-18 21:55:00,
2013-04-18 17:00:00,51.6,49.9,29.50,SSW,193,6.0,6.0,94,0.00,,,1.27,Wunderground v.1.15,2013-04-18 22:00:00,
2013-04-18 17:05:00,51.0,49.3,29.50,WSW,237,7.0,7.0,94,0.00,,,1.28,Wunderground v.1.15,2013-04-18 22:05:00,
2013-04-18 17:15:00,50.1,48.4,29.50,West,267,5.0,7.0,94,0.00,,,1.28,Wunderground v.1.15,2013-04-18 22:15:00,
2013-04-18 17:20:00,49.6,47.9,29.50,NW,306,5.0,8.0,94,0.00,,,1.28,Wunderground v.1.15,2013-04-18 22:20:00,
2013-04-18 17:25:00,49.0,47.3,29.51,West,275,6.0,10.0,94,0.00,,,1.28,Wunderground v.1.15,2013-04-18 22:25:00,
2013-04-18 17:35:00,48.6,47.0,29.53,NNW,347,6.0,13.0,94,0.00,,,1.28,Wunderground v.1.15,2013-04-18 22:35:00,
2013-04-18 17:40:00,48.2,46.6,29.53,West,277,7.0,7.0,94,0.00,,,1.28,Wunderground v.1.15,2013-04-18 22:40:00,
2013-04-18 17:45:00,47.7,45.8,29.54,SW,223,8.0,12.0,93,0.00,,,1.28,Wunderground v.1.15,2013-04-18 22:45:00,
2013-04-18 17:55:00,47.0,44.8,29.54,West,278,8.0,9.0,92,0.00,,,1.28,Wunderground v.1.15,2013-04-18 22:55:00,
2013-04-18 18:00:00,46.5,44.0,29.54,West,267,8.0,9.0,91,0.00,,,1.28,Wunderground v.1.15,2013-04-18 23:00:00,
2013-04-18 18:05:00,46.3,43.8,29.54,SSW,196,9.0,9.0,91,0.00,,,1.28,Wunderground v.1.15,2013-04-18 23:05:00,
2013-04-18 18:15:00,45.7,43.2,29.53,NW,311,6.0,11.0,91,0.00,,,1.28,Wunderground v.1.15,2013-04-18 23:15:00,
2013-04-18 18:20:00,45.4,42.6,29.53,West,265,7.0,10.0,90,0.00,,,1.28,Wunderground v.1.15,2013-04-18 23:20:00,
2013-04-18 18:25:00,45.2,42.4,29.54,South,171,8.0,10.0,90,0.00,,,1.28,Wunderground v.1.15,2013-04-18 23:25:00,
2013-04-18 18:30:00,45.1,42.3,29.54,WSW,257,6.0,8.0,90,0.00,,,1.28,Wunderground v.1.15,2013-04-18 23:30:00,
2013-04-18 18:35:00,44.9,42.1,29.55,WNW,299,7.0,8.0,90,0.00,,,1.28,Wunderground v.1.15,2013-04-18 23:35:00,
2013-04-18 18:45:00,44.4,41.4,29.56,SW,229,7.0,15.0,89,0.00,,,1.28,Wunderground v.1.15,2013-04-18 23:45:00,
2013-04-18 18:50:00,44.2,41.2,29.56,West,259,8.0,8.0,89,0.00,,,1.28,Wunderground v.1.15,2013-04-18 23:50:00,
2013-04-18 18:55:00,44.0,41.0,29.55,South,187,8.0,9.0,89,0.00,,,1.28,Wunderground v.1.15,2013-04-18 23:55:00,
2013-04-18 19:00:00,43.8,40.8,29.55,WSW,242,7.0,7.0,89,0.00,,,1.28,Wunderground v.1.15,2013-04-19 00:00:00,
2013-04-18 19:05:00,43.5,40.2,29.56,West,273,7.0,7.0,88,0.00,,,1.28,Wunderground v.1.15,2013-04-19 00:05:00,
2013-04-18 19:15:00,43.2,39.9,29.56,WNW,287,6.0,7.0,88,0.00,,,1.28,Wunderground v.1.15,2013-04-19 00:15:00,
2013-04-18 19:20:00,43.1,39.8,29.56,SW,220,6.0,7.0,88,0.00,,,1.28,Wunderground v.1.15,2013-04-19 00:20:00,
2013-04-18 19:25:00,42.9,39.3,29.56,West,275,7.0,7.0,87,0.00,,,1.28,Wunderground v.1.15,2013-04-19 00:25:00,
2013-04-18 19:30:00,42.7,39.1,29.56,West,279,7.0,7.0,87,0.00,,,1.28,Wunderground v.1.15,2013-04-19 00:30:00,
2013-04-18 19:35:00,42.6,38.7,29.57,SSE,155,7.0,9.0,86,0.00,,,1.28,Wunderground v.1.15,2013-04-19 00:35:00,
2013-04-18 19:40:00,42.5,38.6,29.57,SW,234,8.0,8.0,86,0.00,,,1.28,Wunderground v.1.15,2013-04-19 00:40:00,
2013-04-18 19:45:00,42.4,38.5,29.58,SSW,192,8.0,9.0,86,0.00,,,1.28,Wunderground v.1.15,2013-04-19 00:45:00,
2013-04-18 19:55:00,41.9,37.7,29.59,WSW,248,8.0,12.0,85,0.00,,,1.28,Wunderground v.1.15,2013-04-19 00:55:00,
2013-04-18 20:00:00,41.6,36.8,29.60,South,190,9.0,9.0,83,0.00,,,1.28,Wunderground v.1.15,2013-04-19 01:00:00,
2013-04-18 20:05:00,41.4,36.6,29.61,South,181,8.0,10.0,83,0.00,,,1.28,Wunderground v.1.15,2013-04-19 01:05:00,
2013-04-18 20:15:00,41.0,36.2,29.61,SW,220,8.0,14.0,83,0.00,,,1.28,Wunderground v.1.15,2013-04-19 01:15:00,
2013-04-18 20:20:00,40.9,35.8,29.62,SW,230,8.0,13.0,82,0.00,,,1.28,Wunderground v.1.15,2013-04-19 01:20:00,
2013-04-18 20:25:00,40.7,35.9,29.63,SSW,192,9.0,13.0,83,0.00,,,1.28,Wunderground v.1.15,2013-04-19 01:25:00,
2013-04-18 20:30:00,40.5,36.0,29.64,SSW,198,9.0,11.0,84,0.00,,,1.28,Wunderground v.1.15,2013-04-19 01:30:00,
2013-04-18 20:35:00,40.1,36.2,29.63,SW,217,7.0,15.0,86,0.00,,,1.28,Wunderground v.1.15,2013-04-19 01:35:00,
2013-04-18 20:45:00,39.4,36.1,29.64,WSW,242,8.0,8.0,88,0.00,,,1.28,Wunderground v.1.15,2013-04-19 01:45:00,
2013-04-18 20:50:00,39.3,36.0,29.63,SSW,196,6.0,6.0,88,0.00,,,1.28,Wunderground v.1.15,2013-04-19 01:50:00,
2013-04-18 20:55:00,39.2,35.9,29.64,West,275,7.0,18.0,88,0.00,,,1.28,Wunderground v.1.15,2013-04-19 01:55:00,
2013-04-18 21:00:00,38.9,35.1,29.64,WSW,251,8.0,8.0,86,0.00,,,1.28,Wunderground v.1.15,2013-04-19 02:00:00,
2013-04-18 21:05:00,38.8,35.0,29.64,WSW,247,9.0,9.0,86,0.00,,,1.28,Wunderground v.1.15,2013-04-19 02:05:00,
2013-04-18 21:15:00,38.5,34.1,29.64,South,171,9.0,12.0,84,0.00,,,1.28,Wunderground v.1.15,2013-04-19 02:15:00,
2013-04-18 21:20:00,38.3,33.9,29.64,West,272,8.0,12.0,84,0.00,,,1.28,Wunderground v.1.15,2013-04-19 02:20:00,
2013-04-18 21:25:00,38.3,33.9,29.64,WSW,257,8.0,12.0,84,0.00,,,1.28,Wunderground v.1.15,2013-04-19 02:25:00,
2013-04-18 21:30:00,38.3,33.9,29.64,NNW,346,7.0,7.0,84,0.00,,,1.28,Wunderground v.1.15,2013-04-19 02:30:00,
2013-04-18 21:35:00,38.2,33.8,29.64,SW,236,6.0,7.0,84,0.00,,,1.28,Wunderground v.1.15,2013-04-19 02:35:00,
2013-04-18 21:45:00,38.1,33.4,29.63,WSW,253,7.0,13.0,83,0.00,,,1.28,Wunderground v.1.15,2013-04-19 02:45:00,
2013-04-18 21:50:00,37.9,33.2,29.62,WNW,295,8.0,8.0,83,0.00,,,1.28,Wunderground v.1.15,2013-04-19 02:50:00,
2013-04-18 21:55:00,37.7,33.3,29.63,West,275,7.0,8.0,84,0.00,,,1.28,Wunderground v.1.15,2013-04-19 02:55:00,
2013-04-18 22:00:00,37.6,33.5,29.62,SW,220,6.0,6.0,85,0.00,,,1.28,Wunderground v.1.15,2013-04-19 03:00:00,
2013-04-18 22:05:00,37.4,33.6,29.63,WSW,250,7.0,7.0,86,0.00,,,1.28,Wunderground v.1.15,2013-04-19 03:05:00,
2013-04-18 22:15:00,37.2,33.1,29.63,WSW,245,8.0,9.0,85,0.00,,,1.28,Wunderground v.1.15,2013-04-19 03:15:00,
2013-04-18 22:20:00,37.1,33.0,29.63,West,280,8.0,8.0,85,0.00,,,1.28,Wunderground v.1.15,2013-04-19 03:20:00,
2013-04-18 22:25:00,37.0,32.9,29.63,WSW,240,7.0,10.0,85,0.00,,,1.28,Wunderground v.1.15,2013-04-19 03:25:00,
2013-04-18 22:30:00,36.9,33.1,29.63,West,281,6.0,6.0,86,0.00,,,1.28,Wunderground v.1.15,2013-04-19 03:30:00,
2013-04-18 22:35:00,36.6,33.1,29.64,WSW,246,5.0,7.0,87,0.00,,,1.28,Wunderground v.1.15,2013-04-19 03:35:00,
2013-04-18 22:45:00,35.7,32.5,29.64,WSW,242,6.0,8.0,88,0.00,,,1.28,Wunderground v.1.15,2013-04-19 03:45:00,
2013-04-18 22:50:00,35.7,32.8,29.63,West,265,5.0,5.0,89,0.00,,,1.28,Wunderground v.1.15,2013-04-19 03:50:00,
2013-04-18 22:55:00,35.7,32.5,29.63,SW,227,5.0,7.0,88,0.00,,,1.29,Wunderground v.1.15,2013-04-19 03:55:00,
2013-04-18 23:00:00,35.8,32.6,29.63,WSW,246,5.0,5.0,88,0.00,,,1.29,Wunderground v.1.15,2013-04-19 04:00:00,
2013-04-18 23:05:00,35.9,32.7,29.63,NW,309,4.0,5.0,88,0.00,,,1.29,Wunderground v.1.15,2013-04-19 04:05:00,
2013-04-18 23:10:00,35.9,32.7,29.62,West,272,3.0,4.0,88,0.00,,,1.29,Wunderground v.1.15,2013-04-19 04:10:00,
2013-04-18 23:15:00,35.9,32.4,29.62,West,268,4.0,8.0,87,0.00,,,1.29,Wunderground v.1.15,2013-04-19 04:15:00,
2013-04-18 23:20:00,36.0,32.2,29.61,West,268,5.0,10.0,86,0.00,,,1.29,Wunderground v.1.15,2013-04-19 04:20:00,
2013-04-18 23:25:00,36.0,32.2,29.62,SW,224,6.0,10.0,86,0.00,,,1.29,Wunderground v.1.15,2013-04-19 04:25:00,
2013-04-18 23:30:00,36.0,31.9,29.61,West,276,7.0,7.0,85,0.00,,,1.29,Wunderground v.1.15,2013-04-19 04:30:00,
2013-04-18 23:40:00,36.0,31.9,29.61,West,273,6.0,6.0,85,0.00,,,1.29,Wunderground v.1.15,2013-04-19 04:40:00,
2013-04-18 23:45:00,35.9,31.8,29.60,WNW,300,5.0,7.0,85,0.00,,,1.29,Wunderground v.1.15,2013-04-19 04:45:00,
2013-04-18 23:50:00,35.9,31.8,29.60,NNW,327,4.0,4.0,85,0.00,,,1.29,Wunderground v.1.15,2013-04-19 04:50:00,
2013-04-18 23:55:00,35.8,31.7,29.60,NW,313,4.0,7.0,85,0.00,,,1.29,Wunderground v.1.15,2013-04-19 04:55:00,